Location: Unspecified
(0.0000°N, 0.0000°E)
Time: 19:15:48
(UTC+01:00)

AO-40 - Visible Passes

Search period start: 22 January 2018 00:00
Search period end: 01 February 2018 00:00
Orbit: 1147 x 58674 km, 6.4° (Epoch: 21 January)

Date Brightness Start Highest point End Pass type
(mag) Time Alt. Az. Time Alt. Az. Time Alt. Az.
23 Jan ? 01:00:24 10° E 07:38:53 85° N 12:25:09 10° E visible
24 Jan ? 02:42:41 10° E 05:31:30 28° E 06:50:50 10° E visible
25 Jan ? 03:20:15 10° W 04:56:32 65° W 10:55:40 10° W visible
25 Jan ? 22:05:46 10° WSW 22:14:53 71° S 12:30:05 10° W visible
27 Jan ? 00:51:30 10° E 07:32:53 85° N 11:57:23 10° E visible
28 Jan ? 02:38:17 10° E 05:04:05 25° E 06:18:17 10° E visible
29 Jan ? 02:51:44 10° W 04:28:20 70° W 10:47:02 10° W visible
29 Jan ? 21:38:11 10° WSW 21:46:38 70° S 12:23:34 10° W visible
31 Jan ? 00:42:32 10° E 07:27:42 84° N 11:29:35 10° E visible
